| time (UTC) | temp C | wind direction | speed KPH | gust KPH | rain 1hr cm | rain 24hr cm | rain mn cm | humidity % | barometer mb |
| 20260509200639 | 25 | 237 | 4.8 | 14.5 | 0.00 | 0.00 | 0.00 | 78 | 1014.2 |
| 20260509200134 | 25 | 236 | 8.0 | 14.5 | 0.00 | 0.00 | 0.00 | 78 | 1014.2 |
| 20260509195630 | 24 | 222 | 6.4 | 14.5 | 0.00 | 0.00 | 0.00 | 79 | 1014.3 |
| 20260509195125 | 24 | 243 | 6.4 | 16.1 | 0.00 | 0.00 | 0.00 | 78 | 1014.2 |
| 20260509194624 | 24 | 205 | 6.4 | 12.9 | 0.00 | 0.00 | 0.00 | 79 | 1014.1 |
| 20260509194122 | 24 | 233 | 8.0 | 9.7 | 0.00 | 0.00 | 0.00 | 80 | 1014.1 |
| 20260509193618 | 24 | 245 | 3.2 | 19.3 | 0.00 | 0.00 | 0.00 | 80 | 1014.1 |
| 20260509193114 | 24 | 231 | 14.5 | 16.1 | 0.00 | 0.00 | 0.00 | 79 | 1014.6 |
| 20260509192611 | 24 | 250 | 4.8 | 9.7 | 0.00 | 0.00 | 0.00 | 80 | 1014.7 |
| 20260509192105 | 24 | 229 | 11.3 | 14.5 | 0.00 | 0.00 | 0.00 | 79 | 1014.7 |
| 20260509191600 | 24 | 230 | 9.7 | 12.9 | 0.00 | 0.00 | 0.00 | 79 | 1014.6 |
| 20260509191057 | 24 | 197 | 9.7 | 19.3 | 0.00 | 0.00 | 0.00 | 79 | 1014.7 |
| 20260509190553 | 24 | 245 | 9.7 | 11.3 | 0.00 | 0.00 | 0.00 | 79 | 1014.7 |
| 20260509190051 | 24 | 262 | 3.2 | 11.3 | 0.00 | 0.00 | 0.00 | 79 | 1014.8 |
| 20260509185549 | 25 | 232 | 12.9 | 14.5 | 0.00 | 0.00 | 0.00 | 77 | 1014.7 |
| 20260509185044 | 25 | 227 | 4.8 | 14.5 | 0.00 | 0.00 | 0.00 | 77 | 1014.7 |
| 20260509184543 | 25 | 240 | 6.4 | 12.9 | 0.00 | 0.00 | 0.00 | 77 | 1014.8 |
| 20260509184039 | 24 | 231 | 9.7 | 12.9 | 0.00 | 0.00 | 0.00 | 77 | 1014.6 |
| 20260509183534 | 25 | 235 | 11.3 | 17.7 | 0.00 | 0.00 | 0.00 | 76 | 1014.7 |
| 20260509183031 | 25 | 239 | 6.4 | 9.7 | 0.00 | 0.00 | 0.00 | 74 | 1014.8 |
| 20260509182527 | 25 | 216 | 9.7 | 12.9 | 0.00 | 0.00 | 0.00 | 74 | 1014.6 |
| 20260509182024 | 25 | 214 | 12.9 | 17.7 | 0.00 | 0.00 | 0.00 | 74 | 1014.6 |
| 20260509181522 | 25 | 249 | 3.2 | 12.9 | 0.00 | 0.00 | 0.00 | 77 | 1014.8 |
| 20260509181019 | 25 | 228 | 11.3 | 17.7 | 0.00 | 0.00 | 0.00 | 77 | 1014.7 |
| 20260509180514 | 25 | 215 | 14.5 | 17.7 | 0.00 | 0.00 | 0.00 | 77 | 1014.9 |
| 20260509180013 | 24 | 234 | 8.0 | 9.7 | 0.00 | 0.00 | 0.00 | 78 | 1014.8 |
| 20260509175508 | 24 | 257 | 6.4 | 14.5 | 0.00 | 0.00 | 0.00 | 80 | 1015.0 |
| 20260509175005 | 24 | 220 | 11.3 | 14.5 | 0.00 | 0.00 | 0.00 | 79 | 1015.0 |
| 20260509174502 | 24 | 242 | 6.4 | 14.5 | 0.00 | 0.00 | 0.00 | 78 | 1014.9 |
| 20260509174002 | 24 | 220 | 12.9 | 14.5 | 0.00 | 0.00 | 0.00 | 78 | 1015.1 |
| 20260509173457 | 24 | 224 | 12.9 | 16.1 | 0.00 | 0.00 | 0.00 | 76 | 1014.9 |
| 20260509172953 | 24 | 229 | 12.9 | 14.5 | 0.00 | 0.00 | 0.00 | 78 | 1015.2 |
| 20260509172450 | 24 | 217 | 9.7 | 14.5 | 0.00 | 0.00 | 0.00 | 79 | 1015.3 |
| 20260509171946 | 24 | 213 | 12.9 | 17.7 | 0.00 | 0.00 | 0.00 | 80 | 1015.5 |
| 20260509171442 | 24 | 275 | 4.8 | 17.7 | 0.00 | 0.00 | 0.00 | 80 | 1015.3 |
| 20260509170939 | 24 | 217 | 6.4 | 8.0 | 0.00 | 0.00 | 0.00 | 80 | 1015.5 |
| 20260509170434 | 23 | 204 | 9.7 | 14.5 | 0.00 | 0.00 | 0.00 | 80 | 1015.5 |
| 20260509165930 | 23 | 237 | 9.7 | 16.1 | 0.00 | 0.00 | 0.00 | 81 | 1015.5 |
| 20260509165424 | 23 | 245 | 4.8 | 9.7 | 0.00 | 0.00 | 0.00 | 84 | 1015.7 |
| 20260509164920 | 23 | 221 | 8.0 | 11.3 | 0.00 | 0.00 | 0.00 | 84 | 1015.8 |
| 20260509164416 | 23 | 238 | 9.7 | 20.9 | 0.00 | 0.00 | 0.00 | 84 | 1016.0 |
| 20260509163912 | 23 | 221 | 8.0 | 12.9 | 0.00 | 0.00 | 0.00 | 84 | 1016.0 |
| 20260509163410 | 23 | 277 | 1.6 | 9.7 | 0.00 | 0.00 | 0.00 | 84 | 1016.1 |
| 20260509162909 | 23 | 219 | 9.7 | 9.7 | 0.00 | 0.00 | 0.00 | 84 | 1015.8 |
| 20260509162407 | 23 | 258 | 4.8 | 12.9 | 0.00 | 0.00 | 0.00 | 83 | 1015.8 |
| 20260509161903 | 23 | 240 | 4.8 | 8.0 | 0.00 | 0.00 | 0.00 | 84 | 1015.7 |
| 20260509161400 | 23 | 220 | 6.4 | 6.4 | 0.00 | 0.00 | 0.00 | 84 | 1015.6 |
| 20260509160855 | 23 | 244 | 4.8 | 11.3 | 0.00 | 0.00 | 0.00 | 83 | 1015.8 |
| 20260509160351 | 23 | 292 | 3.2 | 14.5 | 0.00 | 0.00 | 0.00 | 82 | 1015.8 |
| 20260509155846 | 23 | 242 | 9.7 | 14.5 | 0.00 | 0.00 | 0.00 | 82 | 1015.6 |
| 20260509155343 | 23 | 230 | 4.8 | 11.3 | 0.00 | 0.00 | 0.00 | 83 | 1015.6 |
| 20260509154839 | 23 | 228 | 6.4 | 12.9 | 0.00 | 0.00 | 0.00 | 84 | 1015.6 |
| 20260509154336 | 23 | 207 | 6.4 | 8.0 | 0.00 | 0.00 | 0.00 | 84 | 1015.6 |
| 20260509153833 | 23 | 278 | 4.8 | 12.9 | 0.00 | 0.00 | 0.00 | 85 | 1015.7 |
| 20260509153330 | 23 | 255 | 6.4 | 12.9 | 0.00 | 0.00 | 0.00 | 86 | 1016.0 |
| 20260509152827 | 23 | 221 | 8.0 | 9.7 | 0.00 | 0.00 | 0.00 | 85 | 1016.1 |
| 20260509152322 | 23 | 237 | 6.4 | 9.7 | 0.00 | 0.00 | 0.00 | 87 | 1016.2 |
| 20260509151821 | 23 | 205 | 9.7 | 14.5 | 0.00 | 0.00 | 0.00 | 86 | 1016.3 |
| 20260509151316 | 23 | 228 | 6.4 | 11.3 | 0.00 | 0.00 | 0.00 | 86 | 1016.2 |
| 20260509150815 | 23 | 251 | 4.8 | 6.4 | 0.00 | 0.00 | 0.00 | 86 | 1016.4 |
| 20260509150312 | 23 | 252 | 1.6 | 6.4 | 0.00 | 0.00 | 0.00 | 87 | 1016.5 |
| 20260509145809 | 23 | 271 | 1.6 | 4.8 | 0.00 | 0.00 | 0.00 | 86 | 1016.3 |
| 20260509145309 | 23 | 282 | 3.2 | 4.8 | 0.00 | 0.00 | 0.00 | 87 | 1016.4 |
| 20260509144806 | 23 | 263 | 3.2 | 3.2 | 0.00 | 0.00 | 0.00 | 86 | 1016.5 |
| 20260509144303 | 23 | 268 | 1.6 | 4.8 | 0.00 | 0.00 | 0.00 | 86 | 1016.5 |
| 20260509143800 | 23 | 278 | 1.6 | 3.2 | 0.00 | 0.00 | 0.00 | 86 | 1016.3 |
| 20260509143257 | 22 | 278 | 1.6 | 3.2 | 0.00 | 0.00 | 0.00 | 86 | 1016.4 |
| 20260509142753 | 22 | 356 | 1.6 | 3.2 | 0.00 | 0.00 | 0.00 | 86 | 1016.1 |
| 20260509142249 | 22 | 268 | 1.6 | 3.2 | 0.00 | 0.00 | 0.00 | 86 | 1016.0 |
| 20260509141745 | 22 | 298 | 0.0 | 3.2 | 0.00 | 0.00 | 0.00 | 86 | 1015.9 |
| 20260509141242 | 22 | 217 | 3.2 | 4.8 | 0.00 | 0.00 | 0.00 | 85 | 1016.1 |
| 20260509140739 | 22 | 249 | 3.2 | 4.8 | 0.00 | 0.00 | 0.00 | 86 | 1016.0 |
| 20260509140236 | 22 | 312 | 3.2 | 3.2 | 0.00 | 0.00 | 0.00 | 86 | 1016.0 |
| 20260509135733 | 22 | 203 | 3.2 | 3.2 | 0.00 | 0.00 | 0.00 | 85 | 1015.9 |
| 20260509135232 | 22 | 216 | 3.2 | 4.8 | 0.00 | 0.00 | 0.00 | 85 | 1015.8 |
| 20260509134728 | 22 | 213 | 1.6 | 3.2 | 0.00 | 0.00 | 0.00 | 85 | 1015.7 |
| 20260509134226 | 22 | 282 | 3.2 | 3.2 | 0.00 | 0.00 | 0.00 | 84 | 1016.0 |
| 20260509133723 | 22 | 291 | 0.0 | 3.2 | 0.00 | 0.00 | 0.00 | 84 | 1015.9 |
| 20260509133219 | 22 | 300 | 3.2 | 3.2 | 0.00 | 0.00 | 0.00 | 84 | 1015.9 |
| 20260509132718 | 22 | 349 | 1.6 | 3.2 | 0.00 | 0.00 | 0.00 | 84 | 1016.1 |
| 20260509132216 | 22 | 309 | 1.6 | 3.2 | 0.00 | 0.00 | 0.00 | 84 | 1016.2 |
| 20260509131712 | 22 | 350 | 3.2 | 3.2 | 0.00 | 0.00 | 0.00 | 84 | 1016.2 |
| 20260509131209 | 22 | 327 | 3.2 | 4.8 | 0.00 | 0.00 | 0.00 | 84 | 1016.1 |
| 20260509130705 | 22 | 244 | 0.0 | 3.2 | 0.00 | 0.00 | 0.00 | 84 | 1016.4 |
| 20260509130201 | 22 | 336 | 3.2 | 3.2 | 0.00 | 0.00 | 0.00 | 84 | 1016.3 |
| 20260509125658 | 22 | 340 | 3.2 | 3.2 | 0.00 | 0.00 | 0.00 | 85 | 1016.2 |
| 20260509125154 | 22 | 343 | 1.6 | 3.2 | 0.00 | 0.00 | 0.00 | 85 | 1016.3 |
| 20260509124651 | 21 | 19 | 3.2 | 3.2 | 0.00 | 0.00 | 0.00 | 85 | 1016.1 |
| 20260509124148 | 21 | 344 | 1.6 | 3.2 | 0.00 | 0.00 | 0.00 | 85 | 1016.2 |
| 20260509123646 | 21 | 339 | 3.2 | 3.2 | 0.00 | 0.00 | 0.00 | 86 | 1016.3 |
| 20260509123143 | 21 | 335 | 3.2 | 4.8 | 0.00 | 0.00 | 0.00 | 87 | 1016.4 |
| 20260509122638 | 21 | 342 | 3.2 | 4.8 | 0.00 | 0.00 | 0.00 | 88 | 1016.2 |
| 20260509122136 | 21 | 344 | 6.4 | 6.4 | 0.00 | 0.00 | 0.00 | 88 | 1016.4 |
| 20260509121632 | 20 | 6 | 3.2 | 6.4 | 0.00 | 0.00 | 0.00 | 89 | 1016.3 |
| 20260509121130 | 20 | 341 | 4.8 | 6.4 | 0.00 | 0.00 | 0.00 | 90 | 1016.3 |
| 20260509120628 | 20 | 44 | 6.4 | 6.4 | 0.00 | 0.00 | 0.00 | 93 | 1016.1 |
| 20260509120126 | 20 | 339 | 3.2 | 6.4 | 0.00 | 0.00 | 0.00 | 93 | 1016.2 |
| 20260509115623 | 19 | 31 | 3.2 | 4.8 | 0.00 | 0.00 | 0.00 | 94 | 1016.1 |
| 20260509115121 | 19 | 7 | 3.2 | 4.8 | 0.00 | 0.00 | 0.00 | 94 | 1016.0 |
| 20260509114618 | 18 | 350 | 3.2 | 3.2 | 0.00 | 0.00 | 0.00 | 94 | 1015.8 |
| 20260509114117 | 18 | 352 | 3.2 | 4.8 | 0.00 | 0.00 | 0.00 | 95 | 1015.9 |
| 20260509113615 | 18 | 340 | 3.2 | 3.2 | 0.00 | 0.00 | 0.00 | 95 | 1015.8 |
| 20260509113112 | 18 | 343 | 3.2 | 3.2 | 0.00 | 0.00 | 0.00 | 95 | 1015.9 |
| 20260509112608 | 18 | 0 | 0.0 | 3.2 | 0.00 | 0.00 | 0.00 | 95 | 1015.8 |
| 20260509112106 | 18 | 348 | 3.2 | 3.2 | 0.00 | 0.00 | 0.00 | 95 | 1015.9 |
| 20260509111603 | 18 | 1 | 1.6 | 3.2 | 0.00 | 0.00 | 0.00 | 95 | 1015.8 |
| 20260509111100 | 18 | 8 | 3.2 | 4.8 | 0.00 | 0.00 | 0.00 | 95 | 1015.8 |
| 20260509110557 | 18 | 358 | 3.2 | 4.8 | 0.00 | 0.00 | 0.00 | 95 | 1015.8 |
| 20260509110054 | 18 | 1 | 3.2 | 4.8 | 0.00 | 0.00 | 0.00 | 95 | 1015.6 |
| 20260509105552 | 18 | 15 | 3.2 | 3.2 | 0.00 | 0.00 | 0.00 | 95 | 1015.7 |
| 20260509105049 | 18 | 341 | 3.2 | 4.8 | 0.00 | 0.00 | 0.00 | 95 | 1015.7 |
| 20260509104546 | 18 | 343 | 3.2 | 4.8 | 0.00 | 0.00 | 0.00 | 95 | 1015.5 |
| 20260509104043 | 18 | 4 | 3.2 | 3.2 | 0.00 | 0.00 | 0.00 | 95 | 1015.4 |
| 20260509103541 | 18 | 3 | 3.2 | 4.8 | 0.00 | 0.00 | 0.00 | 94 | 1015.3 |
| 20260509103039 | 18 | 348 | 3.2 | 3.2 | 0.00 | 0.00 | 0.00 | 94 | 1015.3 |
| 20260509102536 | 18 | 9 | 3.2 | 4.8 | 0.00 | 0.00 | 0.00 | 94 | 1015.4 |
| 20260509102033 | 18 | 17 | 3.2 | 3.2 | 0.00 | 0.00 | 0.00 | 94 | 1015.4 |
| 20260509101529 | 18 | 336 | 3.2 | 3.2 | 0.00 | 0.00 | 0.00 | 94 | 1015.2 |
| 20260509101026 | 18 | 349 | 3.2 | 3.2 | 0.00 | 0.00 | 0.00 | 94 | 1015.1 |
| 20260509100523 | 18 | 350 | 3.2 | 3.2 | 0.00 | 0.00 | 0.00 | 94 | 1015.0 |
| 20260509100020 | 18 | 3 | 3.2 | 3.2 | 0.00 | 0.00 | 0.00 | 94 | 1015.3 |
| 20260509095517 | 18 | 325 | 3.2 | 3.2 | 0.00 | 0.00 | 0.00 | 94 | 1015.2 |
| 20260509095014 | 18 | 350 | 3.2 | 4.8 | 0.00 | 0.00 | 0.00 | 94 | 1015.2 |
| 20260509094510 | 18 | 358 | 4.8 | 4.8 | 0.00 | 0.00 | 0.00 | 94 | 1015.1 |
| 20260509094008 | 18 | 8 | 3.2 | 3.2 | 0.00 | 0.00 | 0.00 | 93 | 1015.3 |
| 20260509093506 | 18 | 358 | 3.2 | 3.2 | 0.00 | 0.00 | 0.00 | 93 | 1015.2 |
| 20260509093003 | 18 | 3 | 1.6 | 3.2 | 0.00 | 0.00 | 0.00 | 93 | 1015.4 |
| 20260509092500 | 18 | 345 | 1.6 | 4.8 | 0.00 | 0.00 | 0.00 | 93 | 1015.3 |
| 20260509091959 | 18 | 353 | 3.2 | 3.2 | 0.00 | 0.00 | 0.00 | 93 | 1015.5 |
| 20260509091456 | 18 | 1 | 3.2 | 3.2 | 0.00 | 0.00 | 0.00 | 93 | 1015.5 |
| 20260509090953 | 18 | 335 | 3.2 | 4.8 | 0.00 | 0.00 | 0.00 | 93 | 1015.5 |
| 20260509090450 | 18 | 343 | 3.2 | 3.2 | 0.00 | 0.00 | 0.00 | 92 | 1015.4 |
| 20260509085948 | 18 | 321 | 1.6 | 3.2 | 0.00 | 0.00 | 0.00 | 92 | 1015.5 |
| 20260509085444 | 18 | 338 | 3.2 | 3.2 | 0.00 | 0.00 | 0.00 | 92 | 1015.5 |
| 20260509084941 | 18 | 341 | 3.2 | 3.2 | 0.00 | 0.00 | 0.00 | 92 | 1015.4 |
| 20260509084438 | 18 | 339 | 1.6 | 1.6 | 0.00 | 0.00 | 0.00 | 92 | 1015.4 |
| 20260509083935 | 18 | 337 | 0.0 | 3.2 | 0.00 | 0.00 | 0.00 | 92 | 1015.4 |
| 20260509083432 | 18 | 348 | 3.2 | 4.8 | 0.00 | 0.00 | 0.00 | 92 | 1015.9 |
| 20260509082929 | 18 | 4 | 3.2 | 4.8 | 0.00 | 0.00 | 0.00 | 92 | 1015.7 |
| 20260509082426 | 18 | 353 | 4.8 | 4.8 | 0.00 | 0.00 | 0.00 | 91 | 1015.8 |
| 20260509081923 | 18 | 355 | 4.8 | 4.8 | 0.00 | 0.00 | 0.00 | 91 | 1015.6 |
| 20260509081420 | 18 | 354 | 3.2 | 3.2 | 0.00 | 0.00 | 0.00 | 91 | 1015.6 |
| 20260509080918 | 18 | 358 | 1.6 | 4.8 | 0.00 | 0.00 | 0.00 | 91 | 1015.8 |
| 20260509080415 | 18 | 351 | 3.2 | 3.2 | 0.00 | 0.00 | 0.00 | 90 | 1015.6 |
| 20260509075914 | 18 | 330 | 1.6 | 3.2 | 0.00 | 0.00 | 0.00 | 90 | 1015.9 |
| 20260509075410 | 19 | 336 | 3.2 | 4.8 | 0.00 | 0.00 | 0.00 | 89 | 1016.1 |
| 20260509074908 | 19 | 0 | 3.2 | 3.2 | 0.00 | 0.00 | 0.00 | 89 | 1016.3 |
| 20260509074405 | 19 | 339 | 1.6 | 3.2 | 0.00 | 0.00 | 0.00 | 88 | 1016.0 |
| 20260509073901 | 20 | 19 | 3.2 | 4.8 | 0.00 | 0.00 | 0.00 | 88 | 1016.1 |
| 20260509073358 | 20 | 13 | 3.2 | 8.0 | 0.00 | 0.00 | 0.00 | 87 | 1015.5 |
| 20260509072854 | 20 | 339 | 3.2 | 4.8 | 0.00 | 0.00 | 0.00 | 87 | 1015.4 |
| 20260509072351 | 20 | 318 | 1.6 | 1.6 | 0.00 | 0.00 | 0.00 | 88 | 1015.3 |
| 20260509071848 | 20 | 178 | 1.6 | 3.2 | 0.00 | 0.00 | 0.00 | 89 | 1015.4 |
| 20260509071345 | 20 | 261 | 0.0 | 3.2 | 0.00 | 0.00 | 0.00 | 88 | 1015.5 |
| 20260509070842 | 20 | 337 | 3.2 | 3.2 | 0.00 | 0.00 | 0.00 | 87 | 1015.8 |
| 20260509070338 | 20 | 352 | 3.2 | 3.2 | 0.00 | 0.00 | 0.00 | 87 | 1015.8 |
| 20260509065835 | 20 | 296 | 0.0 | 3.2 | 0.00 | 0.00 | 0.00 | 88 | 1016.0 |
| 20260509065331 | 20 | 315 | 1.6 | 4.8 | 0.00 | 0.00 | 0.00 | 86 | 1015.6 |
| 20260509064827 | 20 | 356 | 1.6 | 3.2 | 0.00 | 0.00 | 0.00 | 86 | 1015.9 |
| 20260509064325 | 20 | 340 | 1.6 | 3.2 | 0.00 | 0.00 | 0.00 | 85 | 1016.6 |
| 20260509063822 | 20 | 355 | 3.2 | 4.8 | 0.00 | 0.00 | 0.00 | 85 | 1016.9 |
| 20260509063318 | 20 | 337 | 1.6 | 4.8 | 0.00 | 0.00 | 0.00 | 84 | 1016.4 |
| 20260509062816 | 20 | 201 | 4.8 | 6.4 | 0.00 | 0.00 | 0.00 | 85 | 1016.4 |
| 20260509062313 | 20 | 207 | 3.2 | 4.8 | 0.00 | 0.00 | 0.00 | 85 | 1016.0 |
| 20260509061810 | 20 | 222 | 4.8 | 6.4 | 0.00 | 0.00 | 0.00 | 83 | 1016.3 |
| 20260509061308 | 20 | 197 | 6.4 | 9.7 | 0.00 | 0.00 | 0.00 | 83 | 1016.4 |
| 20260509060804 | 20 | 201 | 1.6 | 6.4 | 0.00 | 0.00 | 0.00 | 82 | 1016.8 |
| 20260509060301 | 20 | 194 | 4.8 | 6.4 | 0.00 | 0.00 | 0.00 | 82 | 1016.9 |
| 20260509055757 | 20 | 216 | 3.2 | 6.4 | 0.00 | 0.00 | 0.00 | 82 | 1016.8 |
| 20260509055253 | 20 | 201 | 6.4 | 6.4 | 0.00 | 0.00 | 0.00 | 85 | 1016.8 |
| 20260509054749 | 20 | 215 | 6.4 | 9.7 | 0.00 | 0.00 | 0.00 | 85 | 1016.6 |
| 20260509054246 | 20 | 203 | 8.0 | 11.3 | 0.00 | 0.00 | 0.00 | 85 | 1016.4 |
| 20260509053745 | 20 | 195 | 6.4 | 8.0 | 0.00 | 0.00 | 0.00 | 85 | 1016.6 |
| 20260509053241 | 20 | 180 | 3.2 | 4.8 | 0.00 | 0.00 | 0.00 | 84 | 1016.7 |
| 20260509052739 | 20 | 192 | 6.4 | 9.7 | 0.00 | 0.00 | 0.00 | 84 | 1017.0 |
| 20260509052237 | 20 | 265 | 1.6 | 3.2 | 0.00 | 0.00 | 0.00 | 84 | 1017.5 |
| 20260509051734 | 20 | 243 | 0.0 | 4.8 | 0.00 | 0.00 | 0.00 | 83 | 1017.8 |
| 20260509051232 | 20 | 329 | 3.2 | 3.2 | 0.00 | 0.00 | 0.00 | 83 | 1017.8 |
| 20260509050729 | 20 | 329 | 1.6 | 3.2 | 0.00 | 0.00 | 0.00 | 83 | 1017.9 |
| 20260509050225 | 20 | 332 | 3.2 | 3.2 | 0.00 | 0.00 | 0.00 | 82 | 1018.0 |
| 20260509045722 | 20 | 343 | 3.2 | 3.2 | 0.00 | 0.00 | 0.00 | 81 | 1017.9 |
| 20260509045219 | 20 | 337 | 3.2 | 3.2 | 0.00 | 0.00 | 0.00 | 81 | 1018.1 |
| 20260509044717 | 20 | 326 | 1.6 | 3.2 | 0.00 | 0.00 | 0.00 | 81 | 1018.1 |
| 20260509044214 | 20 | 213 | 4.8 | 6.4 | 0.00 | 0.00 | 0.00 | 81 | 1017.8 |
| 20260509043710 | 20 | 227 | 1.6 | 3.2 | 0.00 | 0.00 | 0.00 | 80 | 1017.4 |
| 20260509043206 | 20 | 223 | 3.2 | 3.2 | 0.00 | 0.00 | 0.00 | 80 | 1017.5 |
| 20260509042703 | 20 | 181 | 1.6 | 4.8 | 0.00 | 0.00 | 0.00 | 81 | 1017.6 |
| 20260509042159 | 20 | 235 | 1.6 | 3.2 | 0.00 | 0.00 | 0.00 | 80 | 1018.1 |
| 20260509041655 | 20 | 255 | 0.0 | 3.2 | 0.00 | 0.00 | 0.00 | 80 | 1018.3 |
| 20260509041153 | 20 | 326 | 0.0 | 1.6 | 0.00 | 0.00 | 0.00 | 80 | 1018.3 |
| 20260509040651 | 20 | 213 | 4.8 | 6.4 | 0.00 | 0.00 | 0.00 | 80 | 1018.6 |
| 20260509040148 | 20 | 208 | 4.8 | 8.0 | 0.00 | 0.00 | 0.00 | 81 | 1018.6 |
| 20260509035645 | 20 | 237 | 3.2 | 3.2 | 0.00 | 0.00 | 0.00 | 81 | 1018.7 |
| 20260509035141 | 20 | 190 | 1.6 | 4.8 | 0.00 | 0.00 | 0.00 | 80 | 1018.6 |
| 20260509034639 | 20 | 230 | 3.2 | 4.8 | 0.00 | 0.00 | 0.00 | 81 | 1018.6 |
| 20260509034136 | 20 | 199 | 3.2 | 3.2 | 0.00 | 0.00 | 0.00 | 81 | 1018.7 |
| 20260509033633 | 20 | 322 | 1.6 | 3.2 | 0.00 | 0.00 | 0.00 | 80 | 1018.5 |
| 20260509033130 | 20 | 292 | 0.0 | 1.6 | 0.00 | 0.00 | 0.00 | 80 | 1018.6 |
| 20260509032627 | 20 | 234 | 3.2 | 4.8 | 0.00 | 0.00 | 0.00 | 81 | 1018.7 |
| 20260509032124 | 20 | 303 | 3.2 | 3.2 | 0.00 | 0.00 | 0.00 | 81 | 1018.7 |
| 20260509031622 | 20 | 333 | 1.6 | 3.2 | 0.00 | 0.00 | 0.00 | 81 | 1018.8 |
| 20260509031119 | 20 | 318 | 0.0 | 3.2 | 0.00 | 0.00 | 0.00 | 81 | 1018.6 |
| 20260509030617 | 20 | 237 | 1.6 | 3.2 | 0.00 | 0.00 | 0.00 | 80 | 1018.9 |
| 20260509030114 | 20 | 243 | 1.6 | 4.8 | 0.00 | 0.00 | 0.00 | 82 | 1019.0 |
| 20260509025610 | 19 | 221 | 3.2 | 3.2 | 0.00 | 0.00 | 0.00 | 82 | 1018.8 |
| 20260509025106 | 19 | 1 | 0.0 | 1.6 | 0.00 | 0.00 | 0.00 | 83 | 1018.6 |
| 20260509024602 | 19 | 348 | 1.6 | 3.2 | 0.00 | 0.00 | 0.00 | 82 | 1018.6 |
| 20260509024058 | 19 | 323 | 3.2 | 3.2 | 0.00 | 0.00 | 0.00 | 83 | 1018.4 |
| 20260509023556 | 19 | 328 | 1.6 | 1.6 | 0.00 | 0.00 | 0.00 | 82 | 1018.5 |
| 20260509023053 | 19 | 315 | 1.6 | 3.2 | 0.00 | 0.00 | 0.00 | 82 | 1018.5 |
| 20260509022549 | 19 | 344 | 1.6 | 3.2 | 0.00 | 0.00 | 0.00 | 82 | 1018.8 |
| 20260509022047 | 19 | 321 | 0.0 | 1.6 | 0.00 | 0.00 | 0.00 | 81 | 1018.5 |
| 20260509021543 | 19 | 211 | 1.6 | 3.2 | 0.00 | 0.00 | 0.00 | 81 | 1018.5 |
| 20260509021041 | 19 | 251 | 3.2 | 3.2 | 0.00 | 0.00 | 0.00 | 83 | 1018.5 |
| 20260509020539 | 19 | 316 | 0.0 | 1.6 | 0.00 | 0.00 | 0.00 | 82 | 1018.5 |
| 20260509020035 | 18 | 341 | 0.0 | 1.6 | 0.00 | 0.00 | 0.00 | 82 | 1018.5 |
| 20260509015535 | 18 | 337 | 1.6 | 3.2 | 0.00 | 0.00 | 0.00 | 82 | 1018.6 |
| 20260509015031 | 18 | 322 | 1.6 | 3.2 | 0.00 | 0.00 | 0.00 | 82 | 1018.4 |
| 20260509014528 | 18 | 315 | 0.0 | 1.6 | 0.00 | 0.00 | 0.00 | 82 | 1018.4 |
| 20260509014024 | 18 | 316 | 1.6 | 1.6 | 0.00 | 0.00 | 0.00 | 82 | 1018.4 |
| 20260509013521 | 18 | 321 | 0.0 | 3.2 | 0.00 | 0.00 | 0.00 | 82 | 1018.1 |
| 20260509013016 | 18 | 320 | 0.0 | 3.2 | 0.00 | 0.00 | 0.00 | 81 | 1018.4 |
| 20260509012514 | 19 | 328 | 0.0 | 1.6 | 0.00 | 0.00 | 0.00 | 81 | 1018.3 |
| 20260509012010 | 18 | 319 | 0.0 | 1.6 | 0.00 | 0.00 | 0.00 | 81 | 1018.3 |
| 20260509011508 | 18 | 224 | 0.0 | 3.2 | 0.00 | 0.00 | 0.00 | 81 | 1018.2 |
| 20260509011005 | 18 | 207 | 3.2 | 3.2 | 0.00 | 0.00 | 0.00 | 81 | 1018.3 |
| 20260509010503 | 18 | 289 | 0.0 | 1.6 | 0.00 | 0.00 | 0.00 | 82 | 1018.2 |
| 20260509005959 | 18 | 257 | 0.0 | 1.6 | 0.00 | 0.00 | 0.00 | 81 | 1018.3 |
| 20260509005458 | 18 | 228 | 1.6 | 4.8 | 0.00 | 0.00 | 0.00 | 81 | 1018.2 |
| 20260509004957 | 18 | 228 | 0.0 | 3.2 | 0.00 | 0.00 | 0.00 | 81 | 1018.1 |
| 20260509004455 | 18 | 324 | 1.6 | 1.6 | 0.00 | 0.00 | 0.00 | 79 | 1017.8 |
| 20260509003952 | 18 | 247 | 0.0 | 1.6 | 0.00 | 0.00 | 0.00 | 82 | 1018.0 |
| 20260509003450 | 18 | 45 | 0.0 | 3.2 | 0.00 | 0.00 | 0.00 | 81 | 1017.8 |
| 20260509002947 | 18 | 323 | 3.2 | 3.2 | 0.00 | 0.00 | 0.00 | 81 | 1017.8 |
| 20260509002445 | 18 | 328 | 0.0 | 3.2 | 0.00 | 0.00 | 0.00 | 80 | 1017.8 |
| 20260509001942 | 18 | 338 | 1.6 | 3.2 | 0.00 | 0.00 | 0.00 | 81 | 1017.9 |
| 20260509001438 | 18 | 211 | 0.0 | 1.6 | 0.00 | 0.00 | 0.00 | 81 | 1017.9 |
| 20260509000935 | 18 | 221 | 0.0 | 3.2 | 0.00 | 0.00 | 0.00 | 80 | 1018.0 |
| 20260509000433 | 18 | 309 | 0.0 | 3.2 | 0.00 | 0.00 | 0.00 | 80 | 1017.8 |
| 20260508235928 | 18 | 350 | 3.2 | 3.2 | 0.00 | 0.00 | 0.00 | 79 | 1017.8 |
| 20260508235427 | 18 | 338 | 1.6 | 1.6 | 0.00 | 0.00 | 0.00 | 79 | 1017.8 |
| 20260508234923 | 18 | 341 | 3.2 | 3.2 | 0.00 | 0.00 | 0.00 | 79 | 1017.7 |
| 20260508234420 | 18 | 0 | 1.6 | 3.2 | 0.00 | 0.00 | 0.00 | 78 | 1017.8 |
| 20260508233918 | 18 | 314 | 4.8 | 6.4 | 0.00 | 0.00 | 0.00 | 78 | 1017.5 |
| 20260508233417 | 18 | 359 | 1.6 | 3.2 | 0.00 | 0.00 | 0.00 | 78 | 1017.8 |
| 20260508232913 | 18 | 328 | 0.0 | 4.8 | 0.00 | 0.00 | 0.00 | 79 | 1017.8 |
| 20260508232410 | 18 | 27 | 0.0 | 1.6 | 0.00 | 0.00 | 0.00 | 79 | 1017.7 |
| 20260508231908 | 18 | 312 | 0.0 | 0.0 | 0.00 | 0.00 | 0.00 | 79 | 1017.6 |
| 20260508231404 | 18 | 239 | 0.0 | 4.8 | 0.00 | 0.00 | 0.00 | 79 | 1017.8 |
| 20260508230901 | 19 | 292 | 0.0 | 4.8 | 0.00 | 0.00 | 0.00 | 78 | 1017.8 |
| 20260508230358 | 19 | 341 | 1.6 | 3.2 | 0.00 | 0.00 | 0.00 | 77 | 1017.7 |
| 20260508225855 | 19 | 305 | 0.0 | 3.2 | 0.00 | 0.00 | 0.00 | 77 | 1017.7 |
| 20260508225351 | 19 | 347 | 1.6 | 3.2 | 0.00 | 0.00 | 0.00 | 77 | 1017.8 |
| 20260508224850 | 19 | 332 | 3.2 | 4.8 | 0.00 | 0.00 | 0.00 | 77 | 1017.5 |
| 20260508224347 | 19 | 317 | 3.2 | 4.8 | 0.00 | 0.00 | 0.00 | 77 | 1017.7 |
| 20260508223844 | 19 | 302 | 1.6 | 1.6 | 0.00 | 0.00 | 0.00 | 77 | 1018.0 |
| 20260508223341 | 19 | 326 | 0.0 | 3.2 | 0.00 | 0.00 | 0.00 | 78 | 1017.5 |
| 20260508222839 | 19 | 334 | 3.2 | 3.2 | 0.00 | 0.00 | 0.00 | 77 | 1017.7 |
| 20260508222336 | 19 | 14 | 1.6 | 3.2 | 0.00 | 0.00 | 0.00 | 76 | 1017.9 |
| 20260508221832 | 19 | 312 | 1.6 | 3.2 | 0.00 | 0.00 | 0.00 | 76 | 1017.8 |
| 20260508221328 | 19 | 317 | 0.0 | 3.2 | 0.00 | 0.00 | 0.00 | 76 | 1017.9 |
| 20260508220825 | 20 | 309 | 3.2 | 3.2 | 0.00 | 0.00 | 0.00 | 75 | 1017.7 |
| 20260508220321 | 20 | 260 | 0.0 | 4.8 | 0.00 | 0.00 | 0.00 | 76 | 1017.8 |
| 20260508215818 | 20 | 311 | 0.0 | 3.2 | 0.00 | 0.00 | 0.00 | 76 | 1017.8 |
| 20260508215314 | 20 | 351 | 0.0 | 3.2 | 0.00 | 0.00 | 0.00 | 74 | 1017.8 |
| 20260508214812 | 20 | 331 | 0.0 | 3.2 | 0.00 | 0.00 | 0.00 | 74 | 1017.8 |
| 20260508214309 | 20 | 232 | 0.0 | 3.2 | 0.00 | 0.00 | 0.00 | 75 | 1017.8 |
| 20260508213805 | 20 | 108 | 0.0 | 4.8 | 0.00 | 0.00 | 0.00 | 74 | 1017.9 |
| 20260508213302 | 20 | 330 | 0.0 | 3.2 | 0.00 | 0.00 | 0.00 | 73 | 1017.9 |
| 20260508212758 | 20 | 342 | 0.0 | 3.2 | 0.00 | 0.00 | 0.00 | 74 | 1018.1 |
| 20260508212254 | 20 | 277 | 0.0 | 3.2 | 0.00 | 0.00 | 0.00 | 75 | 1018.1 |
| 20260508211750 | 20 | 323 | 0.0 | 3.2 | 0.00 | 0.00 | 0.00 | 74 | 1018.0 |
| 20260508211246 | 20 | 315 | 0.0 | 3.2 | 0.00 | 0.00 | 0.00 | 73 | 1017.8 |
| 20260508210744 | 20 | 322 | 0.0 | 1.6 | 0.00 | 0.00 | 0.00 | 76 | 1017.8 |
| 20260508210241 | 20 | 148 | 0.0 | 6.4 | 0.00 | 0.00 | 0.00 | 75 | 1017.7 |
| 20260508205737 | 20 | 189 | 1.6 | 3.2 | 0.00 | 0.00 | 0.00 | 73 | 1017.7 |
| 20260508205234 | 20 | 322 | 3.2 | 4.8 | 0.00 | 0.00 | 0.00 | 73 | 1018.1 |
| 20260508204730 | 20 | 139 | 1.6 | 3.2 | 0.00 | 0.00 | 0.00 | 74 | 1018.1 |
| 20260508204227 | 20 | 189 | 0.0 | 3.2 | 0.00 | 0.00 | 0.00 | 73 | 1017.7 |
| 20260508203723 | 20 | 202 | 1.6 | 3.2 | 0.00 | 0.00 | 0.00 | 73 | 1017.6 |
| 20260508203219 | 20 | 186 | 1.6 | 4.8 | 0.00 | 0.00 | 0.00 | 71 | 1017.8 |
| 20260508202716 | 20 | 335 | 0.0 | 3.2 | 0.00 | 0.00 | 0.00 | 72 | 1017.9 |
| 20260508202213 | 20 | 27 | 0.0 | 1.6 | 0.00 | 0.00 | 0.00 | 74 | 1018.0 |
| 20260508201710 | 20 | 206 | 3.2 | 3.2 | 0.00 | 0.00 | 0.00 | 71 | 1018.1 |
| 20260508201206 | 20 | 161 | 3.2 | 6.4 | 0.00 | 0.00 | 0.00 | 71 | 1018.4 |